Location: ??
(34.9170°N, 135.5016°E)
Time: 01:08:43
(UTC+00:00)

Gblst 52 Del rocket - Pass Details

Date: 29 October 2020
Orbit: 805 x 1365 km, 51.5° (Epoch: 25 November)

Event Time Altitude Azimuth Distance (km) Brightness Sun altitude
Exits shadow 19:32:26 32° 221° (SW) 1,369 4.9 -21.9°
Maximum altitude 19:35:06 84° 136° (SE) 850 4.2 -21.4°
Drops below altitude 10° 19:41:07 10° 49° (NE) 2,594 7.3 -20.2°
Sets 19:43:48 0° 49° (NE) 3,614 8.2 -19.6°
